When you browse on this site, cookies collect data to enhance your experience and personalize the content and advertising you see.
Visit our Privacy Policy to learn more. By continuing to use the site, you agree to this use of cookies and data.
  • In Italy
  • List of Countries
  • For 7 days
  • Water Temperature
  • Satellite Maps
  • Weather Map
  • Weather Widgets
  • user-avatar
    Login

    Hourly Weather Lisburn

    Today, 15 December, Saturday

    Time Temperature Precipitation Wind Pressure Humidity
    00:00 +3°C° 0 mm 12 mps 754 mmHg 87%
    01:00 +3°C° 0.3 mm 12 mps 753 mmHg 87%
    02:00 +3°C° 0.3 mm 12 mps 752 mmHg 88%
    03:00 +3°C° 0.3 mm 12 mps 752 mmHg 88%
    04:00 +3°C° 0.6 mm 12 mps 751 mmHg 88%
    05:00 +3°C° 0.6 mm 12 mps 750 mmHg 88%
    06:00 +3°C° 0 mm 12 mps 749 mmHg 87%
    07:00 +3°C° 0.8 mm 13 mps 748 mmHg 88%
    08:00 +3°C° 0.8 mm 13 mps 747 mmHg 89%
    09:00 +4°C° 0.8 mm 13 mps 745 mmHg 89%
    10:00 +4°C° 2.3 mm 14 mps 744 mmHg 89%
    11:00 +4°C° 2.3 mm 14 mps 743 mmHg 89%
    12:00 +4°C° 0 mm 16 mps 741 mmHg 89%
    13:00 +4°C° 2.2 mm 15 mps 739 mmHg 90%
    14:00 +5°C° 2.2 mm 14 mps 738 mmHg 90%
    15:00 +7°C° 2.2 mm 13 mps 736 mmHg 91%
    16:00 +7°C° 1 mm 12 mps 735 mmHg 91%
    17:00 +7°C° 1 mm 11 mps 735 mmHg 91%
    18:00 +8°C° 1 mm 9 mps 734 mmHg 92%
    19:00 +7°C° 1.2 mm 10 mps 735 mmHg 88%
    20:00 +5°C° 1.2 mm 12 mps 736 mmHg 84%
    21:00 +4°C° 1.2 mm 13 mps 736 mmHg 80%
    22:00 +4°C° 0.4 mm 11 mps 738 mmHg 80%
    23:00 +5°C° 0.4 mm 10 mps 739 mmHg 79%

    Tomorrow, 16 December, Sunday

    Time Temperature Precipitation Wind Pressure Humidity
    00:00 +3°C° 0.4 mm 9 mps 741 mmHg 79%
    01:00 +4°C° 0 mm 8 mps 741 mmHg 80%
    02:00 +4°C° 0 mm 8 mps 742 mmHg 82%
    03:00 +4°C° 0 mm 7 mps 743 mmHg 83%
    04:00 +3°C° 0 mm 7 mps 744 mmHg 85%
    05:00 +3°C° 0 mm 7 mps 744 mmHg 86%
    06:00 +3°C° 0 mm 7 mps 744 mmHg 87%
    07:00 +2°C° 0 mm 6 mps 745 mmHg 88%
    08:00 +2°C° 0 mm 6 mps 745 mmHg 88%
    09:00 +2°C° 0 mm 6 mps 745 mmHg 89%
    10:00 +3°C° 0 mm 6 mps 745 mmHg 88%
    11:00 +3°C° 0 mm 6 mps 746 mmHg 86%
    12:00 +4°C° 0 mm 6 mps 746 mmHg 84%
    13:00 +5°C° 0 mm 5 mps 746 mmHg 85%
    14:00 +5°C° 0 mm 5 mps 746 mmHg 86%
    15:00 +5°C° 0 mm 5 mps 746 mmHg 86%
    16:00 +3°C° 0 mm 5 mps 747 mmHg 87%
    17:00 +3°C° 0 mm 5 mps 747 mmHg 88%
    18:00 +3°C° 0 mm 5 mps 748 mmHg 89%
    19:00 +3°C° 0 mm 5 mps 748 mmHg 89%
    20:00 +3°C° 0 mm 5 mps 749 mmHg 90%
    21:00 +3°C° 0 mm 5 mps 749 mmHg 90%
    22:00 +3°C° 0 mm 5 mps 750 mmHg 90%
    23:00 +2°C° 0 mm 5 mps 750 mmHg 91%

    Day after tomorrow, 17 December, Monday

    Time Temperature Precipitation Wind Pressure Humidity
    00:00 +2°C° 0 mm 5 mps 751 mmHg 91%
    01:00 +2°C° 0 mm 5 mps 751 mmHg 91%
    02:00 +2°C° 0 mm 5 mps 751 mmHg 91%
    03:00 +2°C° 0 mm 5 mps 752 mmHg 91%
    04:00 +2°C° 0 mm 5 mps 752 mmHg 90%
    05:00 +2°C° 0 mm 5 mps 752 mmHg 90%
    06:00 +2°C° 0 mm 5 mps 752 mmHg 90%
    07:00 +2°C° 0 mm 6 mps 752 mmHg 89%
    08:00 +3°C° 0 mm 7 mps 752 mmHg 88%
    09:00 +4°C° 0 mm 7 mps 752 mmHg 87%
    10:00 +5°C° 0 mm 8 mps 751 mmHg 87%
    11:00 +6°C° 0 mm 9 mps 751 mmHg 86%
    12:00 +7°C° 0 mm 10 mps 750 mmHg 86%
    13:00 +7°C° 0.1 mm 10 mps 749 mmHg 86%
    14:00 +8°C° 0.1 mm 10 mps 749 mmHg 86%
    15:00 +8°C° 0.1 mm 11 mps 748 mmHg 86%
    16:00 +8°C° 0.1 mm 11 mps 747 mmHg 86%
    17:00 +9°C° 0.1 mm 11 mps 747 mmHg 85%
    18:00 +9°C° 0.1 mm 11 mps 747 mmHg 85%
    19:00 +9°C° 0.1 mm 12 mps 746 mmHg 85%
    20:00 +9°C° 0.1 mm 12 mps 746 mmHg 84%
    21:00 +9°C° 0.1 mm 12 mps 746 mmHg 84%
    22:00 +9°C° 0.2 mm 12 mps 745 mmHg 84%
    23:00 +9°C° 0.2 mm 13 mps 745 mmHg 84%

    18 December, Tuesday

    Time Temperature Precipitation Wind Pressure Humidity
    00:00 +10°C° 0.2 mm 13 mps 744 mmHg 84%
    01:00 +9°C° 0.3 mm 13 mps 744 mmHg 84%
    02:00 +9°C° 0.3 mm 13 mps 743 mmHg 85%
    03:00 +9°C° 0.3 mm 13 mps 743 mmHg 85%
    04:00 +9°C° 1.1 mm 14 mps 742 mmHg 85%
    05:00 +9°C° 1.1 mm 14 mps 741 mmHg 85%
    06:00 +9°C° 1.1 mm 15 mps 741 mmHg 86%
    07:00 +9°C° 1.8 mm 15 mps 741 mmHg 87%
    08:00 +8°C° 1.8 mm 14 mps 740 mmHg 88%
    09:00 +8°C° 1.8 mm 14 mps 740 mmHg 89%
    10:00 +7°C° 2.5 mm 12 mps 740 mmHg 91%
    11:00 +6°C° 2.5 mm 11 mps 740 mmHg 93%
    12:00 +6°C° 2.5 mm 9 mps 739 mmHg 94%
    13:00 +5°C° 1.5 mm 8 mps 739 mmHg 92%
    14:00 +5°C° 1.5 mm 7 mps 739 mmHg 89%
    15:00 +5°C° 1.5 mm 6 mps 739 mmHg 86%
    16:00 +6°C° 0 mm 5 mps 740 mmHg 87%
    17:00 +5°C° 0 mm 4 mps 740 mmHg 89%
    18:00 +5°C° 0 mm 4 mps 741 mmHg 90%
    19:00 +5°C° 0 mm 4 mps 741 mmHg 90%
    20:00 +5°C° 0 mm 5 mps 742 mmHg 90%
    21:00 +5°C° 0 mm 5 mps 742 mmHg 90%
    22:00 +5°C° 0 mm 5 mps 743 mmHg 90%
    23:00 +3°C° 0 mm 5 mps 743 mmHg 91%

    19 December, Wednesday

    Time Temperature Precipitation Wind Pressure Humidity
    00:00 +3°C° 0 mm 5 mps 744 mmHg 91%
    01:00 +3°C° 0 mm 6 mps 744 mmHg 90%
    02:00 +2°C° 0 mm 6 mps 744 mmHg 89%
    03:00 +2°C° 0 mm 6 mps 745 mmHg 87%
    04:00 +2°C° 0 mm 7 mps 745 mmHg 87%
    05:00 +2°C° 0 mm 7 mps 745 mmHg 87%
    06:00 +2°C° 0 mm 7 mps 745 mmHg 86%
    07:00 +2°C° 0 mm 7 mps 745 mmHg 86%
    08:00 +2°C° 0 mm 8 mps 745 mmHg 86%
    09:00 +2°C° 0 mm 8 mps 746 mmHg 86%
    10:00 +2°C° 0 mm 8 mps 746 mmHg 85%
    11:00 +4°C° 0 mm 8 mps 746 mmHg 84%
    12:00 +4°C° 0 mm 8 mps 747 mmHg 83%
    13:00 +4°C° 0 mm 8 mps 746 mmHg 82%
    14:00 +4°C° 0 mm 8 mps 746 mmHg 82%
    15:00 +4°C° 0 mm 7 mps 746 mmHg 81%
    16:00 +4°C° 0 mm 8 mps 746 mmHg 81%
    17:00 +3°C° 0 mm 9 mps 746 mmHg 81%
    18:00 +3°C° 0 mm 9 mps 746 mmHg 80%
    19:00 +3°C° 0.1 mm 9 mps 746 mmHg 82%
    20:00 +3°C° 0.1 mm 9 mps 746 mmHg 84%
    21:00 +3°C° 0.1 mm 9 mps 746 mmHg 86%
    22:00 +4°C° 0 mm 8 mps 747 mmHg 87%
    23:00 +4°C° 0 mm 8 mps 747 mmHg 87%

    20 December, Thursday

    Time Temperature Precipitation Wind Pressure Humidity
    00:00 +4°C° 0 mm 7 mps 747 mmHg 88%
    01:00 +4°C° 0.1 mm 7 mps 748 mmHg 88%
    02:00 +4°C° 0.1 mm 7 mps 748 mmHg 87%
    03:00 +4°C° 0.1 mm 7 mps 748 mmHg 87%
    04:00 +4°C° 0 mm 7 mps 749 mmHg 87%
    05:00 +4°C° 0 mm 7 mps 749 mmHg 88%
    06:00 +4°C° 0 mm 7 mps 750 mmHg 88%
    07:00 +4°C° 0 mm 7 mps 750 mmHg 89%
    08:00 +3°C° 0 mm 7 mps 751 mmHg 90%
    09:00 +3°C° 0 mm 6 mps 751 mmHg 90%
    10:00 +4°C° 0 mm 6 mps 752 mmHg 88%
    11:00 +4°C° 0 mm 7 mps 752 mmHg 86%
    12:00 +5°C° 0 mm 7 mps 752 mmHg 84%
    13:00 +5°C° 0 mm 6 mps 752 mmHg 85%
    14:00 +5°C° 0 mm 6 mps 752 mmHg 86%
    15:00 +4°C° 0 mm 6 mps 752 mmHg 87%
    16:00 +4°C° 0 mm 6 mps 751 mmHg 88%
    17:00 +4°C° 0 mm 6 mps 750 mmHg 89%
    18:00 +4°C° 0 mm 6 mps 750 mmHg 89%
    19:00 +4°C° 0.8 mm 7 mps 748 mmHg 91%
    20:00 +5°C° 0.8 mm 8 mps 747 mmHg 92%
    21:00 +6°C° 0.8 mm 8 mps 746 mmHg 94%
    22:00 +7°C° 1.6 mm 8 mps 744 mmHg 94%
    23:00 +7°C° 1.6 mm 8 mps 742 mmHg 94%
    Show more